Find S-NET A

NORAD ID: 43188 Int'l Des: 2018-014 Owner: TUB Country: D operational
LEOCIRCULARRETROGRADESSO

当前视图

正在加载3D地球...

关于 S-NET A

正在加载描述...

即将过境

Passes for default location (London). Set your location on the main map for personalized predictions.

高度历史

Loading altitude history...

两行轨道根数

1 43188U 18014J 26149.26077075 .00006489 00000-0 33632-3 0 9991
2 43188 97.5402 54.3622 0010636 82.1998 278.0442 15.16474678455895
Epoch: May 29, 2026 • Age: 24 hours

当前状态

高度 519.6 km
速度 7.61 km/s
星下点 59.19°N, 60.69°E
发射日期 Feb 1, 2018
运行时间 8.3 years
类型 other

技术详情

分类 Payload
质量 8.00 kg
干质量 8.00 kg
总质量 8.00 kg
长度 0.24 m
直径 0.24 m
跨度 0.24 m
形状 Box
制造商 TUB
平台类型 TUBiX10
阶段状态 In Orbit
所有者/国家 TUB/D

Most Searched